DELTA 1 DEB, 26829

Orbit data source: Space-Track

DELTA 1 DEB, 26829 is space debris in SSO originally from a launch on Thu, 12 Jun 1975 UTC launched from the Air Force Western Test Range (AFWTR). Debris objects in space refer to the collection of defunct objects orbiting the Earth. Examples of debris include non-operational satellites, rocket bodies, and fragments generated from explosions, collisions, or faulty payload assembly.

Loading next visibility...
Identifier
26829, 1975-052KH
Orbit
SSO
Country
Flag of USUS
Related business
Manufacturer
Unknown
Mission
Spacecraft
Bus & Motor
Unknown
Mass
Unknown
Launch date (UTC)
1975-06-12 (51 years ago)
Launch vehicle
Unknown
Launch site
Air Force Western Test Range (AFWTR)
Object type
Payload
Rocket body
Debris
Shape & HBR
Unknown shape, 0.1 m
Radar Cross Section
Small (<0.1 m²)

Expand to show TLE details & history
Last TLE update: 1 day ago

TLE from 1 day ago
0 DELTA 1 DEB
1 26829U 75052KH  25348.54507126  .00000044  00000-0  20431-3 0  9999
2 26829  99.5856 197.9289 0256393 315.6251  70.3162 13.10311217492157
Epoch: 2025-12-14T13:04Z
TLE epoch observation values (Epoch: 2025-12-14T13:04:54.156Z)
Latitude
28.34208°
Longitude
-86.95295°
Altitude
1,164.142 km
Speed
7.303 km/s
True Right ascension
12h 50m 54s
True Declination
28° 12' 23"
Sunlit
Object was in daylight at epoch
Visualization orbit readout
Latitude
Unknown
Longitude
Unknown
Altitude
Unknown
Speed
Unknown
Apparent Right ascension
Unknown
Apparent Declination
Unknown
Sunlit
N/A
Visualization observer readout
Local Sidereal Time
19:11:22
Azimuth
Unknown
Elevation
Unknown
Doppler factor
Unknown
Orbital elements
Apogee altitude
1,414.095 km
Perigee altitude
1,024.509 km
Semi-major axis
7,597.439 km
Eccentricity
0.02564
Inclination
99.5856°
RAAN
197.9289°
Arg. of periapsis
315.6251°
True anomaly
73.11163°
Mean anomaly
70.3162°
Eccentric anomaly
71.71102°
Mean motion
3.2775 °/min
Orbital period
109.84 mins
BSTAR
0.00020431
Loading maneuver chart data...
Computing Atmospheric mass density...

Documentation

Showing up to 5 results
|